Regional Weather Roundup
Issued by NWS Albany, NY

Home | Current Version | Previous Version | Text Only | Print | Product List | Glossary On
Versions: 1 2 3 4 5 6 7 8 9 10 11 12 13 14 15 16 17 18 19 20 21 22 23 24 25 26 27 28 29 30 31 32 33 34 35 36 37 38 39 40 41 42 43 44 45 46 47 48 49 50
000
ASUS41 KALY 230710
RWRALY

NEW YORK STATE HOURLY WEATHER ROUNDUP
NATIONAL WEATHER SERVICE ALBANY NY
300 AM EDT SUN JUL 23 2017

NOTE: "FAIR" INDICATES FEW OR NO CLOUDS BELOW 12,000 FEET WITH NO
SIGNIFICANT WEATHER AND/OR NO OBSTRUCTIONS TO VISIBILITY.

NYZ032-033-038>043-046>054-057>066-NYZ062>081-082-084-230800-
EAST


CITY           SKY/WX    TMP DP  RH WIND       PRES   REMARKS
ALBANY         PTCLDY    65  61  87 N3        29.78F
GLENS FALLS    CLOUDY    62  59  90 CALM      29.80F
POUGHKEEPSIE   CLOUDY    71  66  84 N3        29.74F
MONTGOMERY     CLOUDY    72  67  84 NE9       29.75F
ISLIP          LGT RAIN  71  69  93 NE3       29.72F
NEW YORK CITY  CLOUDY    72  70  93 CALM      29.72S
CENTRAL PARK   CLOUDY    71  70  96 CALM      29.76S FOG
$$

NYZ005>009-017-018-044>046-055-056-230800-
CENTRAL


CITY           SKY/WX    TMP DP  RH WIND       PRES   REMARKS
FULTON         MOCLDY    64  63  96 CALM      29.78F FOG
SYRACUSE       CLOUDY    63  63 100 E3        29.77F
ROME           CLEAR     62  61  96 CALM      29.78F
ELMIRA         CLOUDY    67  66  97 CALM      29.78F
BINGHAMTON     CLOUDY    63  61  93 E7        29.80F
$$

NYZ026>034-041>043-087-230800-
NORTH


CITY           SKY/WX    TMP DP  RH WIND       PRES   REMARKS
WATERTOWN      MOCLDY    64  64 100 E5        29.79F
FORT DRUM      NOT AVBL
OGDENSBURG     FAIR      61  60  96 CALM      29.83S
MASSENA        PTCLDY    60  55  83 NE5       29.85R
SARANAC LAKE   CLEAR     49  49 100 CALM      29.85F
PLATTSBURGH    CLEAR     60  54  80 NW6       29.82S
$$

NYZ001>004-010>016-019>021-085-230800-
WEST


CITY           SKY/WX    TMP DP  RH WIND       PRES   REMARKS
NIAGARA FALLS  CLOUDY    70  64  81 E3        29.76F
BUFFALO        CLOUDY    68  66  93 E7        29.77F
DUNKIRK        CLOUDY    69  65  86 SE5       29.76F
JAMESTOWN      CLOUDY    64  61  88 SE3       29.80S
WELLSVILLE     LGT RAIN  65  62  90 CALM      29.84F FOG
ROCHESTER      CLOUDY    70  65  84 CALM      29.78F
PENN YAN       CLOUDY    65  62  90 CALM      29.79F
$$

             KEY
       WCI = WIND CHILL INDEX
       VSB = VISIBILITY
       HX  = HEAT INDEX
$$



USA.gov is the U.S. government's official web portal to all federal, state and local government web resources and services.